EST,Max TemperatureF,Mean TemperatureF,Min TemperatureF,Max Dew PointF,MeanDew PointF,Min DewpointF,Max Humidity, Mean Humidity, Min Humidity, Max Sea Level PressureIn, Mean Sea Level PressureIn, Min Sea Level PressureIn, Max VisibilityMiles, Mean VisibilityMiles, Min VisibilityMiles, Max Wind SpeedMPH, Mean Wind SpeedMPH, Max Gust SpeedMPH,PrecipitationIn, CloudCover, Events, WindDirDegrees
2013-11-1,70,66,61,64,59,52,87,80,66,29.81,29.65,29.53,10,10,5,21,13,38,0.07,6,Rain,212
2013-11-2,68,58,48,52,47,41,96,72,37,29.72,29.66,29.59,10,10,10,7,2,,0.00,2,,245
2013-11-3,51,40,30,45,36,15,89,75,43,30.37,30.05,29.74,10,10,7,13,6,21,0.01,5,Rain,349
2013-11-4,44,32,21,24,20,17,92,61,40,30.70,30.60,30.42,10,10,8,12,5,17,0.00,2,,2
2013-11-5,51,36,21,31,26,19,92,73,31,30.71,30.64,30.53,10,10,9,6,1,,0.00,1,,194
2013-11-6,59,44,30,52,43,30,96,83,53,30.52,30.30,30.08,10,10,9,13,4,22,0.00,2,,185
2013-11-7,64,54,42,60,54,33,94,88,70,30.07,29.84,29.68,10,7,2,14,8,23,0.53,7,Rain,233
2013-11-8,51,40,30,33,26,20,89,58,36,30.12,29.95,29.83,10,10,10,14,6,26,0.00,2,,282
2013-11-9,45,38,30,32,25,19,82,63,37,30.22,30.15,30.06,10,10,9,10,5,22,0.00,2,,272
2013-11-10,55,47,39,44,37,32,93,70,47,30.02,29.86,29.74,10,9,4,16,5,26,0.05,6,Rain,228
2013-11-11,53,46,39,38,28,22,59,49,30,30.11,30.01,29.90,10,10,10,15,10,24,0.00,3,,245
2013-11-12,52,41,28,39,28,14,93,72,50,30.19,30.04,29.90,10,7,1,17,7,26,0.13,6,Rain-Snow,311
2013-11-13,37,32,27,14,13,10,58,48,34,30.27,30.23,30.19,10,10,10,15,7,21,0.00,0,,290
2013-11-14,52,41,30,28,20,15,56,43,26,30.18,30.12,30.06,10,10,10,12,7,20,0.00,0,,238
2013-11-15,59,48,37,42,30,19,86,52,24,30.22,30.18,30.14,10,10,10,12,6,18,0.00,0,,221
2013-11-16,62,46,30,39,31,27,96,74,34,30.33,30.29,30.22,10,6,1,9,2,,0.00,1,,241
2013-11-17,62,46,30,59,42,28,97,89,58,30.32,30.21,29.87,10,4,0,16,2,21,0.05,8,Fog-Rain,131
2013-11-18,66,58,50,63,54,32,97,79,48,29.85,29.66,29.57,10,7,2,20,8,38,0.48,5,Rain,200
2013-11-19,48,41,33,30,21,16,52,43,31,30.28,29.96,29.68,10,10,10,14,9,26,0.00,1,,309
2013-11-20,43,31,19,17,14,8,85,53,24,30.62,30.50,30.30,10,10,9,13,5,,0.00,0,,324
2013-11-21,48,33,18,32,22,14,88,68,34,30.64,30.55,30.40,10,10,8,9,1,,0.00,1,,217
2013-11-22,53,46,39,50,45,33,96,89,79,30.37,30.07,29.83,10,7,2,7,2,,0.22,8,Rain,210
2013-11-23,50,42,32,46,24,11,90,50,23,29.90,29.84,29.80,10,10,7,17,8,28,0.00,1,,291
2013-11-24,30,26,21,14,1,-10,53,36,19,30.20,29.96,29.81,10,10,10,21,14,41,0.00,1,,300
2013-11-25,36,26,18,23,3,-10,78,42,14,30.38,30.33,30.21,10,10,10,12,8,20,0.00,0,,260
2013-11-26,46,42,37,42,29,17,90,65,37,30.33,30.24,30.04,10,8,4,9,5,,0.18,6,Rain,203
2013-11-27,64,53,39,62,54,32,94,87,73,29.99,29.44,29.22,10,5,1,25,14,47,2.70,8,Rain,178
2013-11-28,39,32,24,30,15,5,70,48,30,30.45,30.08,29.53,10,10,10,17,11,32,0.00,2,,279
2013-11-29,37,28,17,18,12,4,74,51,32,30.73,30.58,30.46,10,10,10,10,3,,0.00,3,,304
2013-11-30,37,26,15,24,15,8,80,62,35,30.77,30.66,30.44,10,10,10,8,2,,0.00,1,,276